Florence, SC

1:23 AM EDT on March 26, 2017 (GMT -0400)
Florence Regional

Weather History for KFLO - May, 2014

Change the Weather History Date:

Saturday, May 10, 2014

  Actual Average Record
Temperature  
Mean Temperature 80 °F 70 °F  
Max Temperature 89 °F 82 °F 94 °F (1963)
Min Temperature 70 °F 58 °F 42 °F (1967)
Degree Days  
Heating Degree Days 0 1  
Month to date heating degree days 2 14  
Since 1 July heating degree days 2662 2514  
Cooling Degree Days 15 5  
Month to date cooling degree days 86 46  
Year to date cooling degree days 185 142  
Growing Degree Days 29 (Base 50)    
Moisture  
Dew Point 65 °F    
Average Humidity 68    
Maximum Humidity 97    
Minimum Humidity 39    
Precipitation  
Precipitation 0.00 in 0.09 in 2.18 in (1961)
Month to date precipitation 0.02 0.89  
Year to date precipitation 14.76 12.99  
Sea Level Pressure  
Sea Level Pressure 30.10 in    
Wind  
Wind Speed 9 mph (SSW)    
Max Wind Speed 20 mph    
Max Gust Speed 25 mph    
Visibility 9 miles    
Events      
T = Trace of Precipitation, MM = Missing Value Source: NWS Daily Summary

Daily Weather History Graph

Daily Weather History Graph

Search for Another Location

Airport or City:

Trip Planner

Search our weather history database for the weather conditions in past years. The results will help you decide how hot, cold, wet, or windy it might be!

Date:

Astronomy

May. 10, 2014 Rise Set
Actual Time 6:21 AM EDT 8:10 PM EDT
Civil Twilight 5:53 AM EDT 8:37 PM EDT
Nautical Twilight 5:20 AM EDT 9:10 PM EDT
Astronomical Twilight 4:45 AM EDT 9:45 PM EDT
Moon 4:14 PM EDT (5/10) 3:41 AM EDT (5/10)
Length of Visible Light 14h 43m
Length of Day
13h 49m
Waxing Gibbous, 82% of the Moon is Illuminated
May 10
Waxing Gibbous
May 14
Full
May 21
Last Quarter
May 28
New
Jun 5
First Quarter

Hourly Weather History & Observations

Time (EDT) Temp. Heat Index Dew Point Humidity Pressure Visibility Wind Dir Wind Speed Gust Speed Precip Events Conditions
12:53 AM 73.9 °F - 64.0 °F 71% 30.11 in 10.0 mi SSW 9.2 mph - N/A   Clear
1:53 AM 73.0 °F - 64.9 °F 76% 30.11 in 10.0 mi WSW 6.9 mph - N/A   Clear
2:53 AM 72.0 °F - 64.9 °F 78% 30.09 in 10.0 mi South 5.8 mph - N/A   Clear
3:53 AM 72.0 °F - 66.9 °F 84% 30.08 in 10.0 mi SW 4.6 mph - N/A   Clear
4:53 AM 70.0 °F - 66.9 °F 90% 30.09 in 9.0 mi SSW 5.8 mph - N/A   Clear
5:53 AM 70.0 °F - 66.9 °F 90% 30.09 in 7.0 mi South 4.6 mph - N/A   Clear
7:43 AM 72.0 °F - 69.1 °F 91% 30.14 in 5.0 mi SSW 8.1 mph - N/A   Mostly Cloudy
7:48 AM 73.4 °F - 69.8 °F 88% 30.14 in 6.0 mi SSW 6.9 mph - N/A   Scattered Clouds
7:53 AM 73.0 °F - 69.1 °F 87% 30.13 in 7.0 mi SSW 8.1 mph - N/A   Mostly Cloudy
8:03 AM 73.0 °F - 69.1 °F 87% 30.14 in 8.0 mi SSW 9.2 mph - N/A   Mostly Cloudy
8:49 AM 75.2 °F - 68.0 °F 78% 30.15 in 10.0 mi SW 11.5 mph - N/A   Mostly Cloudy
8:53 AM 75.9 °F - 68.0 °F 76% 30.14 in 10.0 mi SW 11.5 mph - N/A   Mostly Cloudy
9:53 AM 80.1 °F 81.9 °F 64.9 °F 60% 30.14 in 10.0 mi WSW 15.0 mph 23.0 mph N/A   Partly Cloudy
10:53 AM 82.9 °F 84.6 °F 64.9 °F 54% 30.14 in 10.0 mi SSW 12.7 mph - N/A   Clear
11:53 AM 84.9 °F 86.1 °F 64.0 °F 49% 30.12 in 10.0 mi South 12.7 mph - N/A   Clear
12:53 PM 84.9 °F 85.0 °F 61.0 °F 44% 30.11 in 10.0 mi SW 9.2 mph 20.7 mph N/A   Partly Cloudy
1:53 PM 87.1 °F 86.5 °F 59.0 °F 39% 30.09 in 10.0 mi South 18.4 mph - N/A   Partly Cloudy
2:53 PM 88.0 °F 88.7 °F 63.0 °F 43% 30.07 in 10.0 mi SSW 11.5 mph - N/A   Partly Cloudy
3:53 PM 88.0 °F 88.4 °F 62.1 °F 42% 30.04 in 10.0 mi SSW 12.7 mph - N/A   Mostly Cloudy
5:53 PM 82.9 °F 83.3 °F 61.0 °F 47% 30.04 in 10.0 mi SSW 6.9 mph - N/A   Clear
6:53 PM 81.0 °F 81.9 °F 62.1 °F 52% 30.04 in 10.0 mi South 4.6 mph - N/A   Clear
7:53 PM 80.1 °F 80.9 °F 60.1 °F 50% 30.04 in 10.0 mi South 8.1 mph - N/A   Clear
8:53 PM 77.0 °F - 61.0 °F 58% 30.06 in 10.0 mi South 5.8 mph - N/A   Clear
9:53 PM 75.9 °F - 61.0 °F 60% 30.08 in 10.0 mi South 4.6 mph - N/A   Clear
11:53 PM 73.9 °F - 64.0 °F 71% 30.09 in 10.0 mi SW 4.6 mph - N/A   Clear